TimeEST,TemperatureF,Dew PointF,Humidity,Sea Level PressureIn,VisibilityMPH,Wind Direction,Wind SpeedMPH,Gust SpeedMPH,PrecipitationIn,Events,Conditions,WindDirDegrees,DateUTC
1:53 AM,34.0,23.0,64,30.25,10.0,SSW,6.9,-,N/A,,Clear,210,2012-12-14 06:53:00
2:53 AM,34.0,24.1,67,30.25,10.0,SW,8.1,-,N/A,,Clear,220,2012-12-14 07:53:00
3:53 AM,32.0,24.1,73,30.25,10.0,SW,8.1,-,N/A,,Clear,220,2012-12-14 08:53:00
4:53 AM,32.0,24.1,73,30.25,10.0,SW,8.1,-,N/A,,Clear,230,2012-12-14 09:53:00
5:53 AM,36.0,25.0,64,30.26,10.0,WSW,10.4,-,N/A,,Clear,250,2012-12-14 10:53:00
6:53 AM,35.1,25.0,67,30.26,10.0,WSW,10.4,-,N/A,,Clear,250,2012-12-14 11:53:00
7:53 AM,33.1,25.0,72,30.26,10.0,WSW,6.9,-,N/A,,Clear,250,2012-12-14 12:53:00
8:53 AM,36.0,26.1,67,30.27,10.0,WSW,8.1,-,N/A,,Clear,250,2012-12-14 13:53:00
9:53 AM,37.9,26.1,62,30.28,10.0,WSW,9.2,-,N/A,,Clear,250,2012-12-14 14:53:00
10:53 AM,41.0,27.0,57,30.29,10.0,WSW,6.9,-,N/A,,Clear,250,2012-12-14 15:53:00
11:53 AM,43.0,27.0,53,30.29,10.0,West,5.8,-,N/A,,Clear,270,2012-12-14 16:53:00
12:53 PM,44.1,28.0,53,30.26,10.0,West,3.5,-,N/A,,Clear,270,2012-12-14 17:53:00
1:53 PM,46.0,28.9,51,30.24,10.0,South,4.6,-,N/A,,Clear,180,2012-12-14 18:53:00
2:53 PM,46.9,30.0,52,30.22,10.0,WSW,3.5,-,N/A,,Clear,250,2012-12-14 19:53:00
3:53 PM,46.9,30.0,52,30.22,10.0,SW,3.5,-,N/A,,Clear,220,2012-12-14 20:53:00
4:53 PM,45.0,28.9,53,30.23,10.0,Calm,Calm,-,N/A,,Clear,0,2012-12-14 21:53:00
5:53 PM,42.1,28.9,60,30.22,10.0,East,3.5,-,N/A,,Clear,90,2012-12-14 22:53:00
6:53 PM,39.0,28.9,67,30.23,10.0,ENE,3.5,-,N/A,,Clear,70,2012-12-14 23:53:00
7:53 PM,36.0,28.9,76,30.24,10.0,Calm,Calm,-,N/A,,Clear,0,2012-12-15 00:53:00
8:53 PM,34.0,28.0,79,30.24,10.0,Calm,Calm,-,N/A,,Clear,0,2012-12-15 01:53:00
9:53 PM,32.0,27.0,82,30.25,10.0,SSE,3.5,-,N/A,,Clear,150,2012-12-15 02:53:00
10:53 PM,33.1,28.0,82,30.22,9.0,SSE,3.5,-,N/A,,Clear,150,2012-12-15 03:53:00
11:53 PM,33.1,27.0,78,30.20,9.0,South,3.5,-,N/A,,Clear,170,2012-12-15 04:53:00